Location: Newark
(49.3000°N, 9.4667°E)
Time: 06:52:32
(UTC+00:00)

Vanguard 3 - Visible Passes

Search period start: 21 May 2019 00:00
Search period end: 31 May 2019 00:00
Orbit: 508 x 3263 km, 33.3° (Epoch: 19 May)

Date Brightness Start Highest point End Pass type
(mag) Time Alt. Az. Time Alt. Az. Time Alt. Az.
21 May 9.7 00:13:02 10° WSW 00:23:49 39° S 00:39:45 10° SE visible
21 May 10.4 02:25:40 10° WSW 02:37:28 28° SSW 02:52:11 10° SSE visible
21 May 9.3 20:50:32 10° SSW 20:57:03 26° SSE 21:06:53 10° ESE visible
21 May 9.4 22:59:41 10° WSW 23:08:51 38° S 23:23:15 10° ESE visible
22 May 10.0 01:11:01 10° WSW 01:22:07 33° SSW 01:37:28 10° SE visible
22 May 9.4 19:39:27 10° S 19:43:41 16° SE 19:49:14 10° ESE visible
22 May 9.2 21:46:53 10° SW 21:54:26 33° SSE 22:06:25 10° ESE visible
22 May 9.7 23:57:10 10° WSW 00:06:59 36° S 00:21:43 10° SE visible
23 May 10.4 02:09:53 10° WSW 02:20:21 24° SSW 02:33:38 10° SSE visible
23 May 9.2 20:34:41 10° SSW 20:40:35 25° SSE 20:49:27 10° ESE visible
23 May 9.3 22:43:54 10° WSW 22:52:13 35° S 23:05:23 10° ESE visible
24 May 10.0 00:55:14 10° WSW 01:05:12 29° SSW 01:19:08 10° SSE visible
24 May 9.1 21:31:08 10° SW 21:37:57 31° SSE 21:48:45 10° ESE visible
24 May 9.6 23:41:26 10° WSW 23:50:16 32° S 00:03:37 10° SE visible
25 May 10.3 01:54:24 10° WSW 02:03:22 20° SSW 02:14:44 10° S visible
25 May 9.1 20:18:57 10° SSW 20:24:14 24° SSE 20:32:05 10° ESE visible
25 May 9.3 22:28:13 10° WSW 22:35:43 32° S 22:47:29 10° SE visible
26 May 9.9 00:39:38 10° WSW 00:48:24 25° SSW 01:00:38 10° SSE visible
26 May 9.1 21:15:29 10° SW 21:21:37 29° S 21:31:09 10° ESE visible
26 May 9.6 23:25:50 10° WSW 23:33:40 28° S 23:45:24 10° SE visible
27 May 10.3 01:39:22 10° WSW 01:46:31 17° SSW 01:55:22 10° S visible
27 May 9.0 20:03:16 10° SSW 20:07:59 22° SSE 20:14:48 10° ESE visible
27 May 9.2 22:12:38 10° WSW 22:19:18 28° S 22:23:58 22° SSE visible
28 May 10.0 00:24:17 10° WSW 00:36:32 18° S 00:41:53 10° SSE visible
28 May 9.0 20:59:55 10° SW 21:05:21 26° S 21:11:50 14° SE visible
28 May 9.6 23:10:24 10° WSW 23:30:39 - SE 23:16:14 23° SSW visible
29 May 10.6 01:35:31 10° S 01:35:31 10° S 01:20:40 - WSW visible
29 May 8.9 19:47:41 10° SSW 19:51:49 20° SSE 19:57:35 10° ESE visible
29 May 9.2 21:57:11 10° SW 22:03:01 24° S 22:05:07 23° SSE visible
30 May 10.2 00:09:20 10° SW 00:28:30 - SSE 00:09:34 10° SW visible
30 May 9.0 20:44:27 10° SW 20:49:11 22° S 20:54:17 14° SE visible
30 May 9.6 22:55:12 10° SW 22:58:46 18° SSW 22:58:46 18° SSW visible
